Time,TemperatureF,DewpointF,PressureIn,WindDirection,WindDirectionDegrees,WindSpeedMPH,WindSpeedGustMPH,Humidity,HourlyPrecipIn,Conditions,Clouds,dailyrainin,SoftwareType,DateUTC
2013-07-05 00:01:00,67.7,66.0,30.15,South,180,0.0,-999.0,94,-99.99,,,-99.99,MetarLogicWeatherSta,2013-07-05 04:01:00,
2013-07-05 00:06:00,67.8,66.2,30.15,SSE,157,0.0,-999.0,94,-99.99,,,-99.99,MetarLogicWeatherSta,2013-07-05 04:06:00,
2013-07-05 00:11:00,67.6,66.0,30.15,SSE,157,0.0,-999.0,94,-99.99,,,-99.99,MetarLogicWeatherSta,2013-07-05 04:11:00,
2013-07-05 00:16:00,67.5,66.1,30.15,South,180,0.0,-999.0,95,-99.99,,,-99.99,MetarLogicWeatherSta,2013-07-05 04:16:00,
2013-07-05 00:21:00,67.6,66.1,30.15,South,180,0.0,-999.0,94,-99.99,,,-99.99,MetarLogicWeatherSta,2013-07-05 04:21:00,
2013-07-05 00:26:00,67.2,65.5,30.15,SSE,157,0.0,-999.0,94,-99.99,,,-99.99,MetarLogicWeatherSta,2013-07-05 04:26:00,
2013-07-05 00:31:00,67.3,65.9,30.15,SSE,157,0.0,-999.0,95,-99.99,,,-99.99,MetarLogicWeatherSta,2013-07-05 04:31:00,
2013-07-05 00:36:00,67.5,66.3,30.15,SSE,157,0.0,-999.0,95,-99.99,,,-99.99,MetarLogicWeatherSta,2013-07-05 04:36:00,
2013-07-05 00:41:00,67.5,66.1,30.15,SSE,157,0.0,-999.0,95,-99.99,,,-99.99,MetarLogicWeatherSta,2013-07-05 04:41:00,
2013-07-05 00:46:00,67.4,66.0,30.15,SSE,157,0.0,-999.0,95,-99.99,,,-99.99,MetarLogicWeatherSta,2013-07-05 04:46:00,
2013-07-05 00:51:00,67.2,65.9,30.15,SSE,157,0.0,-999.0,95,-99.99,,,-99.99,MetarLogicWeatherSta,2013-07-05 04:51:00,
2013-07-05 00:56:00,66.9,65.6,30.15,SSE,157,0.0,-999.0,95,-99.99,,,-99.99,MetarLogicWeatherSta,2013-07-05 04:56:00,
2013-07-05 01:01:00,67.0,65.8,30.15,South,180,0.0,-999.0,95,-99.99,,,-99.99,MetarLogicWeatherSta,2013-07-05 05:01:00,
2013-07-05 01:06:00,67.2,66.1,30.15,SSE,157,0.0,-999.0,96,-99.99,,,-99.99,MetarLogicWeatherSta,2013-07-05 05:06:00,
2013-07-05 01:11:00,67.4,66.3,30.15,South,180,0.0,-999.0,96,-99.99,,,-99.99,MetarLogicWeatherSta,2013-07-05 05:11:00,
2013-07-05 01:16:00,67.2,66.1,30.15,SSE,157,0.0,-999.0,96,-99.99,,,-99.99,MetarLogicWeatherSta,2013-07-05 05:16:00,
2013-07-05 01:21:00,67.0,65.7,30.15,SSE,157,0.0,-999.0,95,-99.99,,,-99.99,MetarLogicWeatherSta,2013-07-05 05:21:00,
2013-07-05 01:26:00,67.1,65.9,30.15,SSE,157,0.0,-999.0,95,-99.99,,,-99.99,MetarLogicWeatherSta,2013-07-05 05:26:00,
2013-07-05 01:31:00,66.9,65.8,30.15,SSE,157,0.0,-999.0,96,-99.99,,,-99.99,MetarLogicWeatherSta,2013-07-05 05:31:00,
2013-07-05 01:36:00,66.9,65.9,30.15,SSE,157,0.0,-999.0,96,-99.99,,,-99.99,MetarLogicWeatherSta,2013-07-05 05:36:00,
2013-07-05 01:41:00,66.9,65.8,30.15,SSE,157,0.0,-999.0,96,-99.99,,,-99.99,MetarLogicWeatherSta,2013-07-05 05:41:00,
2013-07-05 01:46:00,67.0,66.2,30.15,SSE,157,0.0,-999.0,96,-99.99,,,-99.99,MetarLogicWeatherSta,2013-07-05 05:46:00,
2013-07-05 01:51:00,67.3,66.6,30.15,SSE,157,0.0,-999.0,97,-99.99,,,-99.99,MetarLogicWeatherSta,2013-07-05 05:51:00,
2013-07-05 01:57:00,67.6,66.8,30.15,SSE,157,0.0,-999.0,97,-99.99,,,-99.99,MetarLogicWeatherSta,2013-07-05 05:57:00,
2013-07-05 02:02:00,67.9,67.1,30.15,SSE,157,0.0,-999.0,97,-99.99,,,-99.99,MetarLogicWeatherSta,2013-07-05 06:02:00,
2013-07-05 02:07:00,68.0,67.2,30.15,SE,135,0.0,-999.0,97,-99.99,,,-99.99,MetarLogicWeatherSta,2013-07-05 06:07:00,
2013-07-05 02:12:00,67.9,67.2,30.14,South,180,0.0,-999.0,97,-99.99,,,-99.99,MetarLogicWeatherSta,2013-07-05 06:12:00,
2013-07-05 02:18:00,68.3,67.5,30.15,SSE,157,0.0,-999.0,97,-99.99,,,-99.99,MetarLogicWeatherSta,2013-07-05 06:18:00,
2013-07-05 02:23:00,68.2,67.4,30.15,SSE,157,0.0,-999.0,97,-99.99,,,-99.99,MetarLogicWeatherSta,2013-07-05 06:23:00,
2013-07-05 02:28:00,68.4,67.8,30.15,SSE,157,0.0,-999.0,97,-99.99,,,-99.99,MetarLogicWeatherSta,2013-07-05 06:28:00,
2013-07-05 02:36:00,68.3,67.6,30.15,SSE,157,0.0,-999.0,97,-99.99,,,-99.99,MetarLogicWeatherSta,2013-07-05 06:36:00,
2013-07-05 02:43:00,68.3,67.6,30.15,SSE,157,0.0,-999.0,97,-99.99,,,-99.99,MetarLogicWeatherSta,2013-07-05 06:43:00,
2013-07-05 02:48:00,68.2,67.5,30.15,South,180,0.0,-999.0,97,-99.99,,,-99.99,MetarLogicWeatherSta,2013-07-05 06:48:00,
2013-07-05 02:55:00,68.3,67.5,30.15,SE,135,0.0,-999.0,97,-99.99,,,-99.99,MetarLogicWeatherSta,2013-07-05 06:55:00,
2013-07-05 03:00:00,68.3,67.6,30.15,SE,135,0.0,-999.0,97,-99.99,,,-99.99,MetarLogicWeatherSta,2013-07-05 07:00:00,
2013-07-05 03:05:00,68.4,67.8,30.14,SSE,157,0.0,-999.0,97,-99.99,,,-99.99,MetarLogicWeatherSta,2013-07-05 07:05:00,
2013-07-05 03:10:00,68.2,67.6,30.14,South,180,0.0,-999.0,97,-99.99,,,-99.99,MetarLogicWeatherSta,2013-07-05 07:10:00,
2013-07-05 03:15:00,68.2,67.5,30.15,South,180,0.0,-999.0,97,-99.99,,,-99.99,MetarLogicWeatherSta,2013-07-05 07:15:00,
2013-07-05 03:22:00,68.1,67.1,30.14,South,180,0.0,-999.0,96,-99.99,,,-99.99,MetarLogicWeatherSta,2013-07-05 07:22:00,
2013-07-05 03:27:00,67.8,67.1,30.14,SSE,157,0.0,-999.0,97,-99.99,,,-99.99,MetarLogicWeatherSta,2013-07-05 07:27:00,
2013-07-05 03:32:00,67.7,67.2,30.15,South,180,0.0,-999.0,98,-99.99,,,-99.99,MetarLogicWeatherSta,2013-07-05 07:32:00,
2013-07-05 03:37:00,67.7,66.9,30.14,South,180,0.0,-999.0,97,-99.99,,,-99.99,MetarLogicWeatherSta,2013-07-05 07:37:00,
2013-07-05 03:42:00,67.3,66.5,30.14,South,180,0.0,-999.0,97,-99.99,,,-99.99,MetarLogicWeatherSta,2013-07-05 07:42:00,
2013-07-05 03:51:00,67.3,66.6,30.14,South,180,0.0,-999.0,97,-99.99,,,-99.99,MetarLogicWeatherSta,2013-07-05 07:51:00,
2013-07-05 03:56:00,67.3,66.8,30.14,SSE,157,0.0,-999.0,98,-99.99,,,-99.99,MetarLogicWeatherSta,2013-07-05 07:56:00,
2013-07-05 04:01:00,67.3,66.6,30.15,SSE,157,0.0,-999.0,97,-99.99,,,-99.99,MetarLogicWeatherSta,2013-07-05 08:01:00,
2013-07-05 04:06:00,67.5,66.9,30.14,SSE,157,0.0,-999.0,98,-99.99,,,-99.99,MetarLogicWeatherSta,2013-07-05 08:06:00,
2013-07-05 04:11:00,67.4,66.9,30.14,SSE,157,0.0,-999.0,98,-99.99,,,-99.99,MetarLogicWeatherSta,2013-07-05 08:11:00,
2013-07-05 04:16:00,67.3,66.7,30.13,SSE,157,0.0,-999.0,97,-99.99,,,-99.99,MetarLogicWeatherSta,2013-07-05 08:16:00,
2013-07-05 04:21:00,67.3,66.8,30.13,SSE,157,0.0,-999.0,98,-99.99,,,-99.99,MetarLogicWeatherSta,2013-07-05 08:21:00,
2013-07-05 04:26:00,67.6,67.0,30.14,SSE,157,0.0,-999.0,98,-99.99,,,-99.99,MetarLogicWeatherSta,2013-07-05 08:26:00,
2013-07-05 04:31:00,67.3,66.8,30.14,SSE,157,0.0,-999.0,98,-99.99,,,-99.99,MetarLogicWeatherSta,2013-07-05 08:31:00,
2013-07-05 04:36:00,67.1,66.6,30.13,SSE,157,0.0,-999.0,98,-99.99,,,-99.99,MetarLogicWeatherSta,2013-07-05 08:36:00,
2013-07-05 04:41:00,67.0,66.5,30.14,South,180,0.0,-999.0,98,-99.99,,,-99.99,MetarLogicWeatherSta,2013-07-05 08:41:00,
2013-07-05 04:46:00,66.6,65.9,30.14,SSE,157,0.0,-999.0,97,-99.99,,,-99.99,MetarLogicWeatherSta,2013-07-05 08:46:00,
2013-07-05 04:51:00,66.5,66.1,30.15,South,180,0.0,-999.0,98,-99.99,,,-99.99,MetarLogicWeatherSta,2013-07-05 08:51:00,
2013-07-05 04:56:00,66.5,65.9,30.14,SSE,157,0.0,-999.0,98,-99.99,,,-99.99,MetarLogicWeatherSta,2013-07-05 08:56:00,
2013-07-05 05:01:00,66.5,66.0,30.15,SSE,157,0.0,-999.0,98,-99.99,,,-99.99,MetarLogicWeatherSta,2013-07-05 09:01:00,
2013-07-05 05:06:00,66.6,66.3,30.15,SSE,157,0.0,-999.0,98,-99.99,,,-99.99,MetarLogicWeatherSta,2013-07-05 09:06:00,
2013-07-05 05:11:00,66.6,66.4,30.15,SSE,157,0.0,-999.0,99,-99.99,,,-99.99,MetarLogicWeatherSta,2013-07-05 09:11:00,
2013-07-05 05:16:00,66.9,66.8,30.15,SSE,157,0.0,-999.0,99,-99.99,,,-99.99,MetarLogicWeatherSta,2013-07-05 09:16:00,
2013-07-05 05:21:00,67.0,66.6,30.15,SSE,157,0.0,-999.0,98,-99.99,,,-99.99,MetarLogicWeatherSta,2013-07-05 09:21:00,
2013-07-05 05:26:00,67.2,66.7,30.15,SSE,157,0.0,-999.0,98,-99.99,,,-99.99,MetarLogicWeatherSta,2013-07-05 09:26:00,
2013-07-05 05:31:00,67.0,66.6,30.15,SSE,157,0.0,-999.0,98,-99.99,,,-99.99,MetarLogicWeatherSta,2013-07-05 09:31:00,
2013-07-05 05:36:00,67.0,66.6,30.15,SSE,157,0.0,-999.0,98,-99.99,,,-99.99,MetarLogicWeatherSta,2013-07-05 09:36:00,
2013-07-05 05:41:00,67.0,66.5,30.15,SSE,157,0.0,-999.0,98,-99.99,,,-99.99,MetarLogicWeatherSta,2013-07-05 09:41:00,
2013-07-05 05:46:00,67.0,66.8,30.16,SSE,157,0.0,-999.0,99,-99.99,,,-99.99,MetarLogicWeatherSta,2013-07-05 09:46:00,
2013-07-05 05:51:00,67.0,66.6,30.15,SSE,157,0.0,-999.0,98,-99.99,,,-99.99,MetarLogicWeatherSta,2013-07-05 09:51:00,
2013-07-05 05:56:00,66.8,66.4,30.15,SSE,157,0.0,-999.0,98,-99.99,,,-99.99,MetarLogicWeatherSta,2013-07-05 09:56:00,
2013-07-05 06:01:00,67.0,66.6,30.15,South,180,0.0,-999.0,98,-99.99,,,-99.99,MetarLogicWeatherSta,2013-07-05 10:01:00,
2013-07-05 06:06:00,66.9,66.5,30.15,SSE,157,0.0,-999.0,98,-99.99,,,-99.99,MetarLogicWeatherSta,2013-07-05 10:06:00,
2013-07-05 06:11:00,66.9,66.6,30.15,SSE,157,0.0,-999.0,99,-99.99,,,-99.99,MetarLogicWeatherSta,2013-07-05 10:11:00,
2013-07-05 06:16:00,67.3,67.0,30.15,SSE,157,0.0,-999.0,99,-99.99,,,-99.99,MetarLogicWeatherSta,2013-07-05 10:16:00,
2013-07-05 06:21:00,67.3,66.9,30.15,SSE,157,0.0,-999.0,98,-99.99,,,-99.99,MetarLogicWeatherSta,2013-07-05 10:21:00,
2013-07-05 06:26:00,67.4,67.2,30.15,SE,135,0.0,-999.0,99,-99.99,,,-99.99,MetarLogicWeatherSta,2013-07-05 10:26:00,
2013-07-05 06:31:00,67.6,67.4,30.15,SSE,157,0.0,-999.0,99,-99.99,,,-99.99,MetarLogicWeatherSta,2013-07-05 10:31:00,
2013-07-05 06:36:00,67.7,67.5,30.15,SSE,157,0.0,-999.0,99,-99.99,,,-99.99,MetarLogicWeatherSta,2013-07-05 10:36:00,
2013-07-05 06:41:00,67.7,67.6,30.15,South,180,0.0,-999.0,99,-99.99,,,-99.99,MetarLogicWeatherSta,2013-07-05 10:41:00,
2013-07-05 06:46:00,68.1,67.9,30.15,SSE,157,0.0,-999.0,99,-99.99,,,-99.99,MetarLogicWeatherSta,2013-07-05 10:46:00,
2013-07-05 06:51:00,68.1,68.0,30.15,SSE,157,0.0,-999.0,99,-99.99,,,-99.99,MetarLogicWeatherSta,2013-07-05 10:51:00,
2013-07-05 06:56:00,68.3,68.2,30.15,SSE,157,0.0,-999.0,99,-99.99,,,-99.99,MetarLogicWeatherSta,2013-07-05 10:56:00,
2013-07-05 07:01:00,68.4,68.4,30.15,SSE,157,0.0,-999.0,99,-99.99,,,-99.99,MetarLogicWeatherSta,2013-07-05 11:01:00,
2013-07-05 07:06:00,69.0,68.8,30.15,SSE,157,0.0,-999.0,99,-99.99,,,-99.99,MetarLogicWeatherSta,2013-07-05 11:06:00,
2013-07-05 07:11:00,69.3,69.2,30.15,SSE,157,0.0,-999.0,99,-99.99,,,-99.99,MetarLogicWeatherSta,2013-07-05 11:11:00,
2013-07-05 07:16:00,69.5,69.5,30.15,SSE,157,1.0,-999.0,99,-99.99,,,-99.99,MetarLogicWeatherSta,2013-07-05 11:16:00,
2013-07-05 07:21:00,69.7,69.7,30.15,SE,135,0.0,-999.0,99,-99.99,,,-99.99,MetarLogicWeatherSta,2013-07-05 11:21:00,
2013-07-05 07:27:00,70.1,70.0,30.15,SSE,163,0.6,3.0,99,-99.99,,,-99.99,MetarLogicWeatherSta,2013-07-05 11:27:00,
2013-07-05 07:32:00,70.6,70.6,30.15,SSE,157,0.0,-999.0,99,-99.99,,,-99.99,MetarLogicWeatherSta,2013-07-05 11:32:00,
2013-07-05 07:37:00,71.0,70.9,30.15,SSE,157,0.0,-999.0,99,-99.99,,,-99.99,MetarLogicWeatherSta,2013-07-05 11:37:00,
2013-07-05 07:43:00,71.0,70.9,30.15,SSE,157,0.0,-999.0,99,-99.99,,,-99.99,MetarLogicWeatherSta,2013-07-05 11:43:00,
2013-07-05 07:48:00,71.3,71.1,30.15,South,180,0.0,-999.0,99,-99.99,,,-99.99,MetarLogicWeatherSta,2013-07-05 11:48:00,
2013-07-05 07:53:00,71.5,71.4,30.15,SSE,157,0.0,-999.0,99,-99.99,,,-99.99,MetarLogicWeatherSta,2013-07-05 11:53:00,
2013-07-05 07:58:00,71.5,71.1,30.15,SSE,157,0.0,-999.0,98,-99.99,,,-99.99,MetarLogicWeatherSta,2013-07-05 11:58:00,
2013-07-05 08:03:00,71.4,71.0,30.15,SSE,157,0.0,-999.0,98,-99.99,,,-99.99,MetarLogicWeatherSta,2013-07-05 12:03:00,
2013-07-05 08:08:00,71.7,71.2,30.15,SSE,157,0.0,-999.0,98,-99.99,,,-99.99,MetarLogicWeatherSta,2013-07-05 12:08:00,
2013-07-05 08:13:00,71.9,71.6,30.15,SSE,157,0.0,-999.0,98,-99.99,,,-99.99,MetarLogicWeatherSta,2013-07-05 12:13:00,
2013-07-05 08:18:00,72.3,72.0,30.15,SSE,157,0.0,-999.0,99,-99.99,,,-99.99,MetarLogicWeatherSta,2013-07-05 12:18:00,
2013-07-05 08:23:00,72.9,72.2,30.15,South,180,1.0,-999.0,97,-99.99,,,-99.99,MetarLogicWeatherSta,2013-07-05 12:23:00,
2013-07-05 08:28:00,73.3,72.3,30.15,SSE,157,0.0,-999.0,96,-99.99,,,-99.99,MetarLogicWeatherSta,2013-07-05 12:28:00,
2013-07-05 08:33:00,73.7,72.3,30.15,SE,135,1.0,-999.0,95,-99.99,,,-99.99,MetarLogicWeatherSta,2013-07-05 12:33:00,
2013-07-05 08:38:00,73.7,71.8,30.14,SSE,157,0.0,-999.0,93,-99.99,,,-99.99,MetarLogicWeatherSta,2013-07-05 12:38:00,
2013-07-05 08:43:00,73.8,71.4,30.14,East,90,0.0,-999.0,92,-99.99,,,-99.99,MetarLogicWeatherSta,2013-07-05 12:43:00,
2013-07-05 08:48:00,73.9,71.1,30.14,SSE,157,0.0,-999.0,90,-99.99,,,-99.99,MetarLogicWeatherSta,2013-07-05 12:48:00,
2013-07-05 08:53:00,74.4,71.8,30.14,SE,135,0.0,-999.0,91,-99.99,,,-99.99,MetarLogicWeatherSta,2013-07-05 12:53:00,
2013-07-05 08:58:00,74.9,71.4,30.13,East,90,1.0,-999.0,88,-99.99,,,-99.99,MetarLogicWeatherSta,2013-07-05 12:58:00,
2013-07-05 09:03:00,75.1,71.7,30.14,SSE,157,0.0,-999.0,88,-99.99,,,-99.99,MetarLogicWeatherSta,2013-07-05 13:03:00,
2013-07-05 09:08:00,75.8,71.9,30.14,SSE,157,0.0,-999.0,87,-99.99,,,-99.99,MetarLogicWeatherSta,2013-07-05 13:08:00,
2013-07-05 09:13:00,76.3,71.7,30.14,ENE,67,4.0,-999.0,85,-99.99,,,-99.99,MetarLogicWeatherSta,2013-07-05 13:13:00,
2013-07-05 09:18:00,76.4,71.3,30.14,South,180,1.0,-999.0,83,-99.99,,,-99.99,MetarLogicWeatherSta,2013-07-05 13:18:00,
2013-07-05 09:23:00,76.6,71.3,30.14,South,180,1.0,-999.0,83,-99.99,,,-99.99,MetarLogicWeatherSta,2013-07-05 13:23:00,
2013-07-05 09:28:00,77.2,71.4,30.14,SE,135,1.0,-999.0,81,-99.99,,,-99.99,MetarLogicWeatherSta,2013-07-05 13:28:00,
2013-07-05 09:33:00,78.0,71.6,30.13,NNE,22,3.0,-999.0,80,-99.99,,,-99.99,MetarLogicWeatherSta,2013-07-05 13:33:00,
2013-07-05 09:38:00,78.6,71.6,30.14,ENE,67,0.0,-999.0,78,-99.99,,,-99.99,MetarLogicWeatherSta,2013-07-05 13:38:00,
2013-07-05 09:43:00,79.6,72.4,30.13,South,180,0.0,-999.0,78,-99.99,,,-99.99,MetarLogicWeatherSta,2013-07-05 13:43:00,
2013-07-05 09:48:00,79.6,71.3,30.13,SE,135,1.0,-999.0,75,-99.99,,,-99.99,MetarLogicWeatherSta,2013-07-05 13:48:00,
2013-07-05 09:53:00,80.3,71.8,30.13,ESE,112,1.0,-999.0,75,-99.99,,,-99.99,MetarLogicWeatherSta,2013-07-05 13:53:00,
2013-07-05 09:58:00,80.8,72.6,30.13,East,90,3.0,-999.0,75,-99.99,,,-99.99,MetarLogicWeatherSta,2013-07-05 13:58:00,
2013-07-05 10:03:00,81.4,72.9,30.14,SSE,157,0.0,-999.0,75,-99.99,,,-99.99,MetarLogicWeatherSta,2013-07-05 14:03:00,
2013-07-05 10:08:00,81.8,72.2,30.13,South,180,0.0,-999.0,72,-99.99,,,-99.99,MetarLogicWeatherSta,2013-07-05 14:08:00,
2013-07-05 10:13:00,81.9,72.4,30.13,SE,135,1.0,-999.0,72,-99.99,,,-99.99,MetarLogicWeatherSta,2013-07-05 14:13:00,
2013-07-05 10:18:00,81.9,71.8,30.13,SSE,157,0.0,-999.0,71,-99.99,,,-99.99,MetarLogicWeatherSta,2013-07-05 14:18:00,
2013-07-05 10:23:00,81.6,71.7,30.13,South,180,1.0,-999.0,71,-99.99,,,-99.99,MetarLogicWeatherSta,2013-07-05 14:23:00,
2013-07-05 10:28:00,81.4,71.9,30.13,South,180,0.0,-999.0,72,-99.99,,,-99.99,MetarLogicWeatherSta,2013-07-05 14:28:00,
2013-07-05 10:33:00,81.2,72.0,30.13,ENE,67,1.0,-999.0,73,-99.99,,,-99.99,MetarLogicWeatherSta,2013-07-05 14:33:00,
2013-07-05 10:38:00,81.3,72.4,30.13,SE,135,3.0,-999.0,73,-99.99,,,-99.99,MetarLogicWeatherSta,2013-07-05 14:38:00,
2013-07-05 10:43:00,81.6,72.2,30.13,NE,45,3.0,-999.0,72,-99.99,,,-99.99,MetarLogicWeatherSta,2013-07-05 14:43:00,
2013-07-05 10:48:00,81.8,73.1,30.13,South,180,0.0,-999.0,74,-99.99,,,-99.99,MetarLogicWeatherSta,2013-07-05 14:48:00,
2013-07-05 10:53:00,81.5,72.8,30.13,SSE,157,1.0,-999.0,74,-99.99,,,-99.99,MetarLogicWeatherSta,2013-07-05 14:53:00,
2013-07-05 10:58:00,81.2,71.6,30.13,SSE,157,0.0,-999.0,72,-99.99,,,-99.99,MetarLogicWeatherSta,2013-07-05 14:58:00,
2013-07-05 11:03:00,80.9,72.5,30.13,SSW,202,0.0,-999.0,75,-99.99,,,-99.99,MetarLogicWeatherSta,2013-07-05 15:03:00,
2013-07-05 11:08:00,80.7,72.2,30.13,South,180,0.0,-999.0,75,-99.99,,,-99.99,MetarLogicWeatherSta,2013-07-05 15:08:00,
2013-07-05 11:13:00,80.7,72.7,30.13,South,180,0.0,-999.0,76,-99.99,,,-99.99,MetarLogicWeatherSta,2013-07-05 15:13:00,
2013-07-05 11:18:00,80.4,72.3,30.13,SSE,157,0.0,-999.0,76,-99.99,,,-99.99,MetarLogicWeatherSta,2013-07-05 15:18:00,
2013-07-05 11:23:00,80.6,72.2,30.13,South,180,0.0,-999.0,75,-99.99,,,-99.99,MetarLogicWeatherSta,2013-07-05 15:23:00,
2013-07-05 11:28:00,81.0,72.7,30.13,South,180,0.0,-999.0,75,-99.99,,,-99.99,MetarLogicWeatherSta,2013-07-05 15:28:00,
2013-07-05 11:33:00,81.2,73.1,30.13,South,180,0.0,-999.0,76,-99.99,,,-99.99,MetarLogicWeatherSta,2013-07-05 15:33:00,
2013-07-05 11:38:00,81.5,73.6,30.13,South,180,0.0,-999.0,76,-99.99,,,-99.99,MetarLogicWeatherSta,2013-07-05 15:38:00,
2013-07-05 11:43:00,81.7,73.3,30.13,SSE,157,0.0,-999.0,75,-99.99,,,-99.99,MetarLogicWeatherSta,2013-07-05 15:43:00,
2013-07-05 11:48:00,82.2,73.0,30.13,SSE,157,3.0,-999.0,73,-99.99,,,-99.99,MetarLogicWeatherSta,2013-07-05 15:48:00,
2013-07-05 11:53:00,82.2,72.0,30.13,NE,45,4.0,-999.0,71,-99.99,,,-99.99,MetarLogicWeatherSta,2013-07-05 15:53:00,
2013-07-05 11:58:00,82.2,72.6,30.13,South,180,3.0,-999.0,72,-99.99,,,-99.99,MetarLogicWeatherSta,2013-07-05 15:58:00,
2013-07-05 12:03:00,82.4,72.5,30.13,South,180,0.0,-999.0,71,-99.99,,,-99.99,MetarLogicWeatherSta,2013-07-05 16:03:00,
2013-07-05 12:08:00,82.2,72.8,30.13,South,180,0.0,-999.0,72,-99.99,,,-99.99,MetarLogicWeatherSta,2013-07-05 16:08:00,
2013-07-05 12:13:00,82.2,72.8,30.13,South,180,1.0,-999.0,73,-99.99,,,-99.99,MetarLogicWeatherSta,2013-07-05 16:13:00,
2013-07-05 12:18:00,82.5,72.9,30.13,SSE,157,0.0,-999.0,72,-99.99,,,-99.99,MetarLogicWeatherSta,2013-07-05 16:18:00,
2013-07-05 12:23:00,82.5,72.4,30.13,SSE,157,0.0,-999.0,71,-99.99,,,-99.99,MetarLogicWeatherSta,2013-07-05 16:23:00,
2013-07-05 12:28:00,82.5,73.1,30.13,South,180,0.0,-999.0,73,-99.99,,,-99.99,MetarLogicWeatherSta,2013-07-05 16:28:00,
2013-07-05 12:33:00,82.1,73.1,30.13,South,180,0.0,-999.0,73,-99.99,,,-99.99,MetarLogicWeatherSta,2013-07-05 16:33:00,
2013-07-05 12:38:00,82.1,72.7,30.13,NE,45,4.0,-999.0,72,-99.99,,,-99.99,MetarLogicWeatherSta,2013-07-05 16:38:00,
2013-07-05 12:43:00,82.0,72.3,30.13,South,180,0.0,-999.0,72,-99.99,,,-99.99,MetarLogicWeatherSta,2013-07-05 16:43:00,
2013-07-05 12:48:00,81.7,71.9,30.12,SE,135,0.0,-999.0,71,-99.99,,,-99.99,MetarLogicWeatherSta,2013-07-05 16:48:00,
2013-07-05 12:53:00,81.1,71.0,30.13,East,90,3.0,-999.0,70,-99.99,,,-99.99,MetarLogicWeatherSta,2013-07-05 16:53:00,
2013-07-05 12:58:00,79.5,70.3,30.13,SSE,157,0.0,-999.0,73,-99.99,,,-99.99,MetarLogicWeatherSta,2013-07-05 16:58:00,
2013-07-05 13:03:00,79.2,71.1,30.13,SE,135,1.0,-999.0,76,-99.99,,,-99.99,MetarLogicWeatherSta,2013-07-05 17:03:00,
2013-07-05 13:08:00,79.1,71.1,30.12,ESE,112,1.0,-999.0,76,-99.99,,,-99.99,MetarLogicWeatherSta,2013-07-05 17:08:00,
2013-07-05 13:13:00,79.0,71.3,30.12,South,180,0.0,-999.0,76,-99.99,,,-99.99,MetarLogicWeatherSta,2013-07-05 17:13:00,
2013-07-05 13:18:00,78.9,71.2,30.12,SE,135,0.0,-999.0,76,-99.99,,,-99.99,MetarLogicWeatherSta,2013-07-05 17:18:00,
2013-07-05 13:23:00,79.3,71.7,30.12,SE,135,1.0,-999.0,77,-99.99,,,-99.99,MetarLogicWeatherSta,2013-07-05 17:23:00,
2013-07-05 13:28:00,80.1,72.3,30.11,ESE,112,2.3,6.0,76,-99.99,,,-99.99,MetarLogicWeatherSta,2013-07-05 17:28:00,
2013-07-05 13:33:00,81.2,72.9,30.11,East,90,8.0,-999.0,75,-99.99,,,-99.99,MetarLogicWeatherSta,2013-07-05 17:33:00,
2013-07-05 13:38:00,81.8,73.1,30.11,ENE,67,4.0,-999.0,74,-99.99,,,-99.99,MetarLogicWeatherSta,2013-07-05 17:38:00,
2013-07-05 13:43:00,83.0,74.8,30.11,SSE,157,0.0,-999.0,76,-99.99,,,-99.99,MetarLogicWeatherSta,2013-07-05 17:43:00,
2013-07-05 13:48:00,83.7,73.8,30.10,SSE,157,0.0,-999.0,71,-99.99,,,-99.99,MetarLogicWeatherSta,2013-07-05 17:48:00,
2013-07-05 13:53:00,84.3,74.0,30.11,South,180,1.0,-999.0,70,-99.99,,,-99.99,MetarLogicWeatherSta,2013-07-05 17:53:00,
2013-07-05 14:01:00,84.2,73.3,30.11,SSE,157,0.0,-999.0,69,-99.99,,,-99.99,MetarLogicWeatherSta,2013-07-05 18:01:00,
2013-07-05 14:06:00,83.9,73.0,30.11,South,180,0.0,-999.0,69,-99.99,,,-99.99,MetarLogicWeatherSta,2013-07-05 18:06:00,
2013-07-05 14:11:00,84.1,74.1,30.11,South,180,-999.0,-999.0,71,-99.99,,,-99.99,MetarLogicWeatherSta,2013-07-05 18:11:00,
2013-07-05 14:16:00,84.1,73.1,30.11,South,180,-999.0,-999.0,68,-99.99,,,-99.99,MetarLogicWeatherSta,2013-07-05 18:16:00,
2013-07-05 14:21:00,83.9,73.1,30.11,South,180,-999.0,-999.0,69,-99.99,,,-99.99,MetarLogicWeatherSta,2013-07-05 18:21:00,
2013-07-05 14:26:00,84.0,73.2,30.10,SSE,157,-999.0,-999.0,69,-99.99,,,-99.99,MetarLogicWeatherSta,2013-07-05 18:26:00,
2013-07-05 14:31:00,83.8,72.8,30.10,South,180,-999.0,-999.0,69,-99.99,,,-99.99,MetarLogicWeatherSta,2013-07-05 18:31:00,
2013-07-05 14:36:00,83.8,72.8,30.10,South,180,-999.0,-999.0,69,-99.99,,,-99.99,MetarLogicWeatherSta,2013-07-05 18:36:00,
2013-07-05 14:41:00,84.0,73.0,30.10,South,180,-999.0,-999.0,69,-99.99,,,-99.99,MetarLogicWeatherSta,2013-07-05 18:41:00,
2013-07-05 14:46:00,84.1,72.4,30.10,South,180,-999.0,-999.0,67,-99.99,,,-99.99,MetarLogicWeatherSta,2013-07-05 18:46:00,
2013-07-05 14:51:00,83.6,71.9,30.10,South,180,-999.0,-999.0,67,-99.99,,,-99.99,MetarLogicWeatherSta,2013-07-05 18:51:00,
2013-07-05 14:56:00,83.1,71.9,30.09,South,180,-999.0,-999.0,68,-99.99,,,-99.99,MetarLogicWeatherSta,2013-07-05 18:56:00,
2013-07-05 15:01:00,82.3,72.1,30.09,South,180,-999.0,-999.0,70,-99.99,,,-99.99,MetarLogicWeatherSta,2013-07-05 19:01:00,
2013-07-05 15:06:00,81.1,71.7,30.09,SSE,157,-999.0,-999.0,72,-99.99,,,-99.99,MetarLogicWeatherSta,2013-07-05 19:06:00,
2013-07-05 15:11:00,80.0,71.2,30.10,South,180,-999.0,-999.0,74,-99.99,,,-99.99,MetarLogicWeatherSta,2013-07-05 19:11:00,
2013-07-05 15:16:00,78.5,70.1,30.11,SSE,157,-999.0,-999.0,75,-99.99,,,-99.99,MetarLogicWeatherSta,2013-07-05 19:16:00,
2013-07-05 15:21:00,77.3,70.7,30.11,ESE,112,-999.0,-999.0,79,-99.99,,,-99.99,MetarLogicWeatherSta,2013-07-05 19:21:00,
2013-07-05 15:26:00,76.7,71.0,30.11,East,90,-999.0,-999.0,82,-99.99,,,-99.99,MetarLogicWeatherSta,2013-07-05 19:26:00,
2013-07-05 15:31:00,77.0,72.4,30.11,NNE,22,-999.0,-999.0,85,-99.99,,,-99.99,MetarLogicWeatherSta,2013-07-05 19:31:00,
2013-07-05 15:36:00,77.1,72.6,30.10,East,90,-999.0,-999.0,85,-99.99,,,-99.99,MetarLogicWeatherSta,2013-07-05 19:36:00,
2013-07-05 15:41:00,77.3,72.9,30.09,East,90,-999.0,-999.0,86,-99.99,,,-99.99,MetarLogicWeatherSta,2013-07-05 19:41:00,
2013-07-05 15:46:00,77.7,73.0,30.09,SE,135,-999.0,-999.0,85,-99.99,,,-99.99,MetarLogicWeatherSta,2013-07-05 19:46:00,
2013-07-05 15:51:00,78.2,73.2,30.09,South,180,-999.0,-999.0,84,-99.99,,,-99.99,MetarLogicWeatherSta,2013-07-05 19:51:00,
2013-07-05 15:56:00,79.3,73.5,30.09,ESE,112,-999.0,-999.0,82,-99.99,,,-99.99,MetarLogicWeatherSta,2013-07-05 19:56:00,
2013-07-05 16:01:00,79.6,73.4,30.09,ENE,67,-999.0,-999.0,81,-99.99,,,-99.99,MetarLogicWeatherSta,2013-07-05 20:01:00,
2013-07-05 16:06:00,79.5,73.0,30.09,ESE,112,-999.0,-999.0,80,-99.99,,,-99.99,MetarLogicWeatherSta,2013-07-05 20:06:00,
2013-07-05 16:11:00,79.6,73.1,30.09,ENE,67,-999.0,-999.0,80,-99.99,,,-99.99,MetarLogicWeatherSta,2013-07-05 20:11:00,
2013-07-05 16:16:00,79.6,73.2,30.09,South,180,-999.0,-999.0,80,-99.99,,,-99.99,MetarLogicWeatherSta,2013-07-05 20:16:00,
2013-07-05 16:21:00,79.8,72.9,30.09,South,180,-999.0,-999.0,79,-99.99,,,-99.99,MetarLogicWeatherSta,2013-07-05 20:21:00,
2013-07-05 16:26:00,79.8,73.9,30.09,South,180,-999.0,-999.0,81,-99.99,,,-99.99,MetarLogicWeatherSta,2013-07-05 20:26:00,
2013-07-05 16:31:00,79.6,73.5,30.08,SE,135,-999.0,-999.0,81,-99.99,,,-99.99,MetarLogicWeatherSta,2013-07-05 20:31:00,
2013-07-05 16:36:00,79.8,73.3,30.08,SSE,157,-999.0,-999.0,80,-99.99,,,-99.99,MetarLogicWeatherSta,2013-07-05 20:36:00,
2013-07-05 16:41:00,79.9,72.4,30.07,SSE,157,-999.0,-999.0,77,-99.99,,,-99.99,MetarLogicWeatherSta,2013-07-05 20:41:00,
2013-07-05 16:46:00,80.2,72.6,30.07,SSE,157,-999.0,-999.0,77,-99.99,,,-99.99,MetarLogicWeatherSta,2013-07-05 20:46:00,
2013-07-05 16:51:00,79.5,72.9,30.07,South,180,-999.0,-999.0,79,-99.99,,,-99.99,MetarLogicWeatherSta,2013-07-05 20:51:00,
2013-07-05 16:56:00,79.1,72.8,30.07,SSE,157,-999.0,-999.0,80,-99.99,,,-99.99,MetarLogicWeatherSta,2013-07-05 20:56:00,
2013-07-05 17:01:00,78.3,71.9,30.07,SE,135,-999.0,-999.0,80,-99.99,,,-99.99,MetarLogicWeatherSta,2013-07-05 21:01:00,
2013-07-05 17:06:00,78.1,71.9,30.07,SSE,157,-999.0,-999.0,80,-99.99,,,-99.99,MetarLogicWeatherSta,2013-07-05 21:06:00,
2013-07-05 17:11:00,78.2,72.3,30.07,South,180,-999.0,-999.0,81,-99.99,,,-99.99,MetarLogicWeatherSta,2013-07-05 21:11:00,
2013-07-05 17:16:00,78.5,72.8,30.07,SW,225,-999.0,-999.0,82,-99.99,,,-99.99,MetarLogicWeatherSta,2013-07-05 21:16:00,
2013-07-05 17:21:00,78.3,71.9,30.07,SSE,157,-999.0,-999.0,80,-99.99,,,-99.99,MetarLogicWeatherSta,2013-07-05 21:21:00,
2013-07-05 17:26:00,78.1,70.9,30.07,SW,225,-999.0,-999.0,78,-99.99,,,-99.99,MetarLogicWeatherSta,2013-07-05 21:26:00,
2013-07-05 17:31:00,78.1,71.4,30.07,South,180,-999.0,-999.0,79,-99.99,,,-99.99,MetarLogicWeatherSta,2013-07-05 21:31:00,
2013-07-05 17:36:00,77.9,71.0,30.07,SSW,202,-999.0,-999.0,79,-99.99,,,-99.99,MetarLogicWeatherSta,2013-07-05 21:36:00,
2013-07-05 17:42:00,78.0,71.0,30.07,SSE,157,-999.0,-999.0,78,-99.99,,,-99.99,MetarLogicWeatherSta,2013-07-05 21:42:00,
2013-07-05 17:47:00,77.5,71.1,30.07,South,180,-999.0,-999.0,80,-99.99,,,-99.99,MetarLogicWeatherSta,2013-07-05 21:47:00,
2013-07-05 17:52:00,77.3,70.5,30.08,South,180,-999.0,-999.0,79,-99.99,,,-99.99,MetarLogicWeatherSta,2013-07-05 21:52:00,
2013-07-05 17:57:00,77.2,70.7,30.08,South,180,-999.0,-999.0,80,-99.99,,,-99.99,MetarLogicWeatherSta,2013-07-05 21:57:00,
2013-07-05 18:02:00,76.6,70.3,30.08,South,180,-999.0,-999.0,80,-99.99,,,-99.99,MetarLogicWeatherSta,2013-07-05 22:02:00,
2013-07-05 18:07:00,76.7,70.9,30.08,SSE,157,-999.0,-999.0,82,-99.99,,,-99.99,MetarLogicWeatherSta,2013-07-05 22:07:00,
2013-07-05 18:12:00,76.6,71.0,30.08,SE,135,-999.0,-999.0,82,-99.99,,,-99.99,MetarLogicWeatherSta,2013-07-05 22:12:00,
2013-07-05 18:17:00,76.4,70.9,30.09,SSE,157,-999.0,-999.0,82,-99.99,,,-99.99,MetarLogicWeatherSta,2013-07-05 22:17:00,
2013-07-05 18:22:00,76.0,70.8,30.08,SSE,157,-999.0,-999.0,83,-99.99,,,-99.99,MetarLogicWeatherSta,2013-07-05 22:22:00,
2013-07-05 18:27:00,75.9,70.8,30.07,SSE,157,-999.0,-999.0,84,-99.99,,,-99.99,MetarLogicWeatherSta,2013-07-05 22:27:00,
2013-07-05 18:32:00,76.0,71.0,30.08,SE,135,-999.0,-999.0,84,-99.99,,,-99.99,MetarLogicWeatherSta,2013-07-05 22:32:00,
2013-07-05 18:37:00,76.0,71.0,30.08,SE,135,-999.0,-999.0,84,-99.99,,,-99.99,MetarLogicWeatherSta,2013-07-05 22:37:00,
2013-07-05 18:42:00,76.2,71.2,30.08,SSE,157,-999.0,-999.0,84,-99.99,,,-99.99,MetarLogicWeatherSta,2013-07-05 22:42:00,
2013-07-05 18:47:00,76.1,71.2,30.08,SSE,157,-999.0,-999.0,84,-99.99,,,-99.99,MetarLogicWeatherSta,2013-07-05 22:47:00,
2013-07-05 18:52:00,76.0,71.2,30.09,SSE,157,-999.0,-999.0,84,-99.99,,,-99.99,MetarLogicWeatherSta,2013-07-05 22:52:00,
2013-07-05 18:57:00,75.9,71.4,30.08,South,180,-999.0,-999.0,85,-99.99,,,-99.99,MetarLogicWeatherSta,2013-07-05 22:57:00,
2013-07-05 19:02:00,75.5,70.9,30.08,South,180,-999.0,-999.0,85,-99.99,,,-99.99,MetarLogicWeatherSta,2013-07-05 23:02:00,
2013-07-05 19:07:00,75.1,70.5,30.07,South,180,-999.0,-999.0,85,-99.99,,,-99.99,MetarLogicWeatherSta,2013-07-05 23:07:00,
2013-07-05 19:12:00,74.8,69.9,30.07,South,180,-999.0,-999.0,84,-99.99,,,-99.99,MetarLogicWeatherSta,2013-07-05 23:12:00,
2013-07-05 19:17:00,74.6,69.7,30.08,South,180,-999.0,-999.0,84,-99.99,,,-99.99,MetarLogicWeatherSta,2013-07-05 23:17:00,
2013-07-05 19:22:00,74.2,69.2,30.08,South,180,-999.0,-999.0,84,-99.99,,,-99.99,MetarLogicWeatherSta,2013-07-05 23:22:00,
2013-07-05 19:27:00,74.3,69.3,30.08,South,180,-999.0,-999.0,84,-99.99,,,-99.99,MetarLogicWeatherSta,2013-07-05 23:27:00,
2013-07-05 19:32:00,74.4,69.2,30.08,South,180,-999.0,-999.0,83,-99.99,,,-99.99,MetarLogicWeatherSta,2013-07-05 23:32:00,
2013-07-05 19:37:00,74.4,69.3,30.08,South,180,-999.0,-999.0,83,-99.99,,,-99.99,MetarLogicWeatherSta,2013-07-05 23:37:00,
2013-07-05 19:42:00,74.2,69.0,30.09,South,180,-999.0,-999.0,83,-99.99,,,-99.99,MetarLogicWeatherSta,2013-07-05 23:42:00,
2013-07-05 19:47:00,74.2,68.6,30.09,South,180,-999.0,-999.0,82,-99.99,,,-99.99,MetarLogicWeatherSta,2013-07-05 23:47:00,
2013-07-05 19:52:00,74.4,68.8,30.09,South,180,-999.0,-999.0,82,-99.99,,,-99.99,MetarLogicWeatherSta,2013-07-05 23:52:00,
2013-07-05 19:57:00,74.1,68.3,30.09,SSE,157,-999.0,-999.0,81,-99.99,,,-99.99,MetarLogicWeatherSta,2013-07-05 23:57:00,
2013-07-05 20:02:00,73.8,68.3,30.09,South,180,-999.0,-999.0,82,-99.99,,,-99.99,MetarLogicWeatherSta,2013-07-06 00:02:00,
2013-07-05 20:07:00,73.8,68.2,30.09,South,180,-999.0,-999.0,82,-99.99,,,-99.99,MetarLogicWeatherSta,2013-07-06 00:07:00,
2013-07-05 20:12:00,73.7,68.1,30.09,SSE,157,-999.0,-999.0,82,-99.99,,,-99.99,MetarLogicWeatherSta,2013-07-06 00:12:00,
2013-07-05 20:17:00,73.5,68.1,30.09,SSE,157,-999.0,-999.0,82,-99.99,,,-99.99,MetarLogicWeatherSta,2013-07-06 00:17:00,
2013-07-05 20:22:00,73.3,68.0,30.09,SSE,157,-999.0,-999.0,83,-99.99,,,-99.99,MetarLogicWeatherSta,2013-07-06 00:22:00,
2013-07-05 20:27:00,73.1,67.8,30.09,SSE,157,-999.0,-999.0,83,-99.99,,,-99.99,MetarLogicWeatherSta,2013-07-06 00:27:00,
2013-07-05 20:32:00,73.1,68.0,30.10,South,180,-999.0,-999.0,83,-99.99,,,-99.99,MetarLogicWeatherSta,2013-07-06 00:32:00,
2013-07-05 20:37:00,72.7,67.6,30.10,SSE,157,-999.0,-999.0,83,-99.99,,,-99.99,MetarLogicWeatherSta,2013-07-06 00:37:00,
2013-07-05 20:42:00,72.8,67.9,30.10,SSE,157,-999.0,-999.0,84,-99.99,,,-99.99,MetarLogicWeatherSta,2013-07-06 00:42:00,
2013-07-05 20:47:00,72.4,67.5,30.10,SSE,157,-999.0,-999.0,84,-99.99,,,-99.99,MetarLogicWeatherSta,2013-07-06 00:47:00,
2013-07-05 20:52:00,72.3,67.5,30.09,SSE,157,-999.0,-999.0,84,-99.99,,,-99.99,MetarLogicWeatherSta,2013-07-06 00:52:00,
2013-07-05 20:57:00,72.2,67.6,30.09,South,180,-999.0,-999.0,85,-99.99,,,-99.99,MetarLogicWeatherSta,2013-07-06 00:57:00,
2013-07-05 21:02:00,72.2,67.5,30.09,SSE,157,-999.0,-999.0,84,-99.99,,,-99.99,MetarLogicWeatherSta,2013-07-06 01:02:00,
2013-07-05 21:07:00,71.9,67.4,30.10,South,180,-999.0,-999.0,85,-99.99,,,-99.99,MetarLogicWeatherSta,2013-07-06 01:07:00,
2013-07-05 21:12:00,72.0,67.4,30.10,SSE,157,-999.0,-999.0,85,-99.99,,,-99.99,MetarLogicWeatherSta,2013-07-06 01:12:00,
2013-07-05 21:17:00,72.0,67.5,30.10,SSE,157,-999.0,-999.0,85,-99.99,,,-99.99,MetarLogicWeatherSta,2013-07-06 01:17:00,
2013-07-05 21:22:00,72.1,67.6,30.10,South,180,-999.0,-999.0,85,-99.99,,,-99.99,MetarLogicWeatherSta,2013-07-06 01:22:00,
2013-07-05 21:27:00,71.8,67.2,30.11,SSE,157,-999.0,-999.0,85,-99.99,,,-99.99,MetarLogicWeatherSta,2013-07-06 01:27:00,
2013-07-05 21:32:00,71.8,67.2,30.11,SSE,157,-999.0,-999.0,85,-99.99,,,-99.99,MetarLogicWeatherSta,2013-07-06 01:32:00,
2013-07-05 21:37:00,71.5,67.0,30.11,SSE,157,-999.0,-999.0,85,-99.99,,,-99.99,MetarLogicWeatherSta,2013-07-06 01:37:00,
2013-07-05 21:42:00,71.7,66.9,30.11,SSE,157,-999.0,-999.0,84,-99.99,,,-99.99,MetarLogicWeatherSta,2013-07-06 01:42:00,
2013-07-05 21:47:00,71.5,67.0,30.11,SSE,157,-999.0,-999.0,85,-99.99,,,-99.99,MetarLogicWeatherSta,2013-07-06 01:47:00,
2013-07-05 21:52:00,71.3,66.8,30.11,South,180,-999.0,-999.0,85,-99.99,,,-99.99,MetarLogicWeatherSta,2013-07-06 01:52:00,
2013-07-05 21:57:00,71.4,66.9,30.11,South,180,-999.0,-999.0,85,-99.99,,,-99.99,MetarLogicWeatherSta,2013-07-06 01:57:00,
2013-07-05 22:02:00,71.2,66.7,30.11,SSE,157,-999.0,-999.0,85,-99.99,,,-99.99,MetarLogicWeatherSta,2013-07-06 02:02:00,
2013-07-05 22:07:00,71.0,66.8,30.11,South,180,-999.0,-999.0,86,-99.99,,,-99.99,MetarLogicWeatherSta,2013-07-06 02:07:00,
2013-07-05 22:12:00,70.6,66.3,30.11,South,180,-999.0,-999.0,86,-99.99,,,-99.99,MetarLogicWeatherSta,2013-07-06 02:12:00,
2013-07-05 22:18:00,70.5,66.4,30.11,South,180,-999.0,-999.0,86,-99.99,,,-99.99,MetarLogicWeatherSta,2013-07-06 02:18:00,
2013-07-05 22:23:00,70.3,66.3,30.11,SSE,157,-999.0,-999.0,86,-99.99,,,-99.99,MetarLogicWeatherSta,2013-07-06 02:23:00,
2013-07-05 22:28:00,70.0,66.1,30.11,SSE,157,-999.0,-999.0,87,-99.99,,,-99.99,MetarLogicWeatherSta,2013-07-06 02:28:00,
2013-07-05 22:33:00,69.7,66.3,30.11,SSE,157,-999.0,-999.0,88,-99.99,,,-99.99,MetarLogicWeatherSta,2013-07-06 02:33:00,
2013-07-05 22:38:00,69.5,65.9,30.10,SSE,157,-999.0,-999.0,88,-99.99,,,-99.99,MetarLogicWeatherSta,2013-07-06 02:38:00,
2013-07-05 22:43:00,69.2,65.7,30.11,SSE,157,-999.0,-999.0,88,-99.99,,,-99.99,MetarLogicWeatherSta,2013-07-06 02:43:00,
2013-07-05 22:48:00,69.3,65.9,30.11,SSE,157,-999.0,-999.0,88,-99.99,,,-99.99,MetarLogicWeatherSta,2013-07-06 02:48:00,
2013-07-05 22:53:00,69.2,65.9,30.11,SSE,157,-999.0,-999.0,88,-99.99,,,-99.99,MetarLogicWeatherSta,2013-07-06 02:53:00,
2013-07-05 22:58:00,69.0,66.0,30.11,SSE,157,-999.0,-999.0,89,-99.99,,,-99.99,MetarLogicWeatherSta,2013-07-06 02:58:00,
2013-07-05 23:03:00,69.2,66.2,30.11,SSE,157,-999.0,-999.0,90,-99.99,,,-99.99,MetarLogicWeatherSta,2013-07-06 03:03:00,
2013-07-05 23:08:00,69.4,66.6,30.10,SSE,157,-999.0,-999.0,90,-99.99,,,-99.99,MetarLogicWeatherSta,2013-07-06 03:08:00,
2013-07-05 23:13:00,69.4,66.6,30.11,South,180,-999.0,-999.0,90,-99.99,,,-99.99,MetarLogicWeatherSta,2013-07-06 03:13:00,
2013-07-05 23:18:00,69.7,66.9,30.11,South,180,-999.0,-999.0,90,-99.99,,,-99.99,MetarLogicWeatherSta,2013-07-06 03:18:00,
2013-07-05 23:23:00,69.6,66.7,30.11,SSE,157,-999.0,-999.0,90,-99.99,,,-99.99,MetarLogicWeatherSta,2013-07-06 03:23:00,
2013-07-05 23:28:00,69.5,66.6,30.11,SSE,157,-999.0,-999.0,90,-99.99,,,-99.99,MetarLogicWeatherSta,2013-07-06 03:28:00,
2013-07-05 23:33:00,69.6,66.7,30.11,SSE,157,-999.0,-999.0,90,-99.99,,,-99.99,MetarLogicWeatherSta,2013-07-06 03:33:00,
2013-07-05 23:38:00,69.4,66.5,30.11,SSE,157,-999.0,-999.0,90,-99.99,,,-99.99,MetarLogicWeatherSta,2013-07-06 03:38:00,
2013-07-05 23:43:00,69.1,66.3,30.12,South,180,-999.0,-999.0,90,-99.99,,,-99.99,MetarLogicWeatherSta,2013-07-06 03:43:00,
2013-07-05 23:48:00,68.9,66.2,30.11,South,180,-999.0,-999.0,91,-99.99,,,-99.99,MetarLogicWeatherSta,2013-07-06 03:48:00,
2013-07-05 23:53:00,68.8,66.1,30.12,SSE,157,-999.0,-999.0,90,-99.99,,,-99.99,MetarLogicWeatherSta,2013-07-06 03:53:00,
2013-07-05 23:58:00,68.7,66.2,30.13,SSE,157,-999.0,-999.0,91,-99.99,,,-99.99,MetarLogicWeatherSta,2013-07-06 03:58:00,